VR2HK-13 Weather Reports


Display with metric or nautical units.
time (UTC)temp
F
wind
direction
speed
MPH
gust
MPH
rain 1hr
in
rain 24hr
in
rain mn
in
humidity
%
barometer
mb
20260506155510 75 341 1.0 7.0 0.00 0.28 0.00 83 1012.8
20260506155032 75 26 0.0 5.0 0.00 0.28 0.00 83 1012.8
20260506155011 75 31 0.0 4.0 0.00 0.28 0.00 83 1012.8
20260506154521 75 234 0.0 4.0 0.00 0.28 0.00 83 1012.8
20260506154510 75 234 0.0 4.0 0.00 0.28 0.00 83 1012.7
20260506154013 75 263 0.0 4.0 0.00 0.28 0.00 83 1012.8
20260506154010 75 303 0.0 4.0 0.00 0.28 0.00 83 1012.8
20260506153511 75 113 2.0 7.0 0.00 0.28 0.00 83 1012.8
20260506153502 75 122 3.0 7.0 0.00 0.28 0.00 83 1012.9
20260506153010 75 230 1.0 5.0 0.00 0.28 0.00 83 1012.9
20260506152952 75 303 2.0 5.0 0.00 0.28 0.00 83 1013.0
20260506152510 75 357 1.0 2.0 0.00 0.28 0.00 83 1013.1
20260506152442 75 27 0.0 2.0 0.00 0.28 0.00 83 1013.1
20260506152012 75 21 0.0 4.0 0.00 0.28 0.00 83 1013.1
20260506151931 75 360 0.0 4.0 0.00 0.28 0.00 83 1013.1
20260506151511 75 25 2.0 11.0 0.00 0.28 0.00 83 1013.2
20260506151422 75 56 1.0 11.0 0.00 0.28 0.00 83 1013.1
20260506151010 75 57 3.0 6.0 0.00 0.28 0.00 83 1013.2
20260506150911 75 43 0.0 2.0 0.00 0.28 0.00 83 1013.2
20260506150510 75 55 0.0 2.0 0.00 0.28 0.00 83 1013.1
20260506150402 75 60 0.0 2.0 0.00 0.28 0.00 83 1013.2
20260506150011 75 76 1.0 3.0 0.00 0.28 0.00 83 1013.2
20260506145851 75 30 1.0 5.0 0.00 0.28 0.00 83 1013.1
20260506145510 75 124 3.0 5.0 0.00 0.28 0.00 83 1013.2
20260506145342 75 115 2.0 4.0 0.00 0.28 0.00 83 1013.2
20260506145009 75 53 1.0 3.0 0.00 0.28 0.00 82 1013.1
20260506144831 75 43 1.0 3.0 0.00 0.28 0.00 82 1013.2
20260506144510 75 235 0.0 3.0 0.00 0.28 0.00 82 1013.1
20260506144321 75 225 1.0 2.0 0.00 0.28 0.00 82 1013.1
20260506144010 75 203 0.0 3.0 0.00 0.28 0.00 82 1013.1
20260506143811 75 345 0.0 3.0 0.00 0.28 0.00 82 1013.0
20260506143510 75 286 1.0 7.0 0.00 0.28 0.00 82 1013.0
20260506143301 75 299 3.0 7.0 0.00 0.28 0.00 82 1012.9
20260506143010 75 321 0.0 2.0 0.00 0.28 0.00 82 1012.9
20260506142752 75 254 0.0 5.0 0.00 0.28 0.00 82 1013.0
20260506142509 75 354 2.0 5.0 0.00 0.28 0.00 82 1013.0
20260506142241 75 68 2.0 3.0 0.00 0.28 0.00 82 1013.0
20260506142010 75 315 0.0 9.0 0.00 0.28 0.00 82 1013.0
20260506141731 75 32 2.0 9.0 0.00 0.28 0.00 82 1013.0
20260506141510 75 68 3.0 5.0 0.00 0.28 0.00 82 1013.0
20260506141222 75 78 2.0 5.0 0.00 0.28 0.00 82 1013.0
20260506141009 75 50 2.0 5.0 0.00 0.28 0.00 82 1013.1
20260506140711 75 36 2.0 8.0 0.00 0.28 0.00 82 1013.0
20260506140510 75 21 0.0 8.0 0.00 0.28 0.00 82 1013.0
20260506140201 75 92 0.0 4.0 0.00 0.28 0.00 82 1013.0
20260506140010 75 18 1.0 3.0 0.00 0.28 0.00 82 1012.9
20260506135651 75 282 1.0 9.0 0.00 0.28 0.00 82 1012.9
20260506135509 75 25 3.0 9.0 0.00 0.28 0.00 82 1012.9
20260506135141 75 9 3.0 8.0 0.00 0.28 0.00 82 1013.0
20260506135010 75 42 1.0 8.0 0.00 0.28 0.00 82 1012.9
20260506134631 75 311 2.0 6.0 0.00 0.28 0.00 82 1012.9
20260506134510 75 24 2.0 5.0 0.00 0.28 0.00 82 1012.8
20260506134121 75 360 1.0 13.0 0.00 0.28 0.00 82 1012.8
20260506134009 75 22 2.0 15.0 0.00 0.28 0.00 82 1012.8
20260506133611 75 61 7.0 13.0 0.00 0.28 0.00 82 1012.8
20260506133509 75 71 5.0 8.0 0.00 0.28 0.00 83 1012.7
20260506133010 75 329 1.0 9.0 0.01 0.28 0.00 83 1012.7
20260506132550 75 43 3.0 8.0 0.01 0.28 0.00 83 1012.7
20260506132509 75 23 3.0 7.0 0.01 0.28 0.00 83 1012.7
20260506132041 75 338 1.0 11.0 0.01 0.28 0.00 83 1012.7
20260506132009 75 271 2.0 11.0 0.01 0.28 0.00 83 1012.6
20260506131531 75 269 1.0 3.0 0.01 0.28 0.00 83 1012.7
20260506131509 75 253 1.0 3.0 0.01 0.28 0.00 83 1012.7
20260506131020 75 56 3.0 9.0 0.01 0.28 0.00 83 1012.7
20260506131010 75 52 3.0 9.0 0.01 0.28 0.00 83 1012.7
20260506130509 75 58 2.0 7.0 0.01 0.28 0.00 83 1012.7
20260506130009 75 87 5.0 10.0 0.01 0.28 0.00 83 1012.6
20260506130000 75 101 5.0 10.0 0.01 0.28 0.00 83 1012.6
20260506125510 75 37 4.0 11.0 0.01 0.28 0.00 83 1012.6
20260506125451 75 58 4.0 11.0 0.01 0.28 0.00 83 1012.6
20260506125009 75 293 2.0 5.0 0.01 0.28 0.00 83 1012.6
20260506124940 75 302 3.0 5.0 0.01 0.28 0.00 83 1012.6
20260506124509 75 360 2.0 9.0 0.01 0.28 0.00 83 1012.6
20260506124430 75 350 1.0 9.0 0.01 0.28 0.00 83 1012.6
20260506124008 75 83 2.0 7.0 0.01 0.28 0.00 83 1012.5
20260506123920 75 29 1.0 7.0 0.01 0.28 0.00 83 1012.5
20260506123509 75 75 5.0 13.0 0.01 0.28 0.00 83 1012.5
20260506123410 75 70 8.0 13.0 0.01 0.28 0.00 83 1012.5
20260506123009 75 57 3.0 8.0 0.00 0.27 0.00 83 1012.5
20260506122509 75 25 1.0 7.0 0.00 0.27 0.00 83 1012.3
20260506122350 75 54 3.0 7.0 0.00 0.27 0.00 83 1012.4
20260506122009 75 132 0.0 7.0 0.00 0.27 0.00 83 1012.3
20260506121840 75 28 1.0 7.0 0.00 0.27 0.00 83 1012.3
20260506121509 75 3 1.0 9.0 0.00 0.27 0.00 83 1012.3
20260506121330 75 46 3.0 9.0 0.00 0.27 0.00 83 1012.4
20260506121009 75 40 5.0 15.0 0.00 0.27 0.00 83 1012.3
20260506120820 75 350 4.0 15.0 0.00 0.27 0.00 83 1012.3
20260506120509 75 53 3.0 10.0 0.00 0.27 0.00 83 1012.3
20260506120309 75 71 6.0 9.0 0.00 0.27 0.00 83 1012.4
20260506120008 75 32 4.0 7.0 0.00 0.27 0.00 83 1012.3
20260506115800 75 75 1.0 8.0 0.00 0.27 0.00 83 1012.3
20260506115509 75 45 3.0 10.0 0.00 0.27 0.00 83 1012.2
20260506115250 75 88 5.0 10.0 0.00 0.27 0.00 83 1012.2
20260506115009 75 63 2.0 8.0 0.00 0.27 0.00 83 1012.2
20260506114740 75 168 1.0 3.0 0.00 0.27 0.00 83 1012.1
20260506114508 75 63 0.0 5.0 0.00 0.27 0.00 83 1012.1
20260506114230 75 53 2.0 6.0 0.00 0.27 0.00 84 1012.2
20260506114009 75 71 2.0 7.0 0.00 0.27 0.00 83 1012.1
20260506113720 75 215 2.0 7.0 0.00 0.27 0.00 83 1012.1
20260506113508 75 263 3.0 6.0 0.00 0.27 0.00 83 1012.1
20260506113210 75 269 1.0 9.0 0.00 0.27 0.00 83 1012.1
20260506113008 75 272 4.0 9.0 0.00 0.27 0.00 83 1012.1
20260506112700 75 233 1.0 4.0 0.00 0.27 0.00 83 1012.1
20260506112509 75 284 1.0 4.0 0.00 0.27 0.00 83 1012.1
20260506112149 75 14 1.0 4.0 0.00 0.27 0.00 83 1012.0
20260506112008 75 331 2.0 4.0 0.00 0.27 0.00 83 1012.0
20260506111639 75 344 0.0 4.0 0.00 0.27 0.00 83 1012.1
20260506111508 75 293 1.0 4.0 0.00 0.27 0.00 83 1012.0
20260506111130 75 333 0.0 3.0 0.00 0.27 0.00 83 1012.0
20260506111009 75 284 2.0 5.0 0.00 0.27 0.00 83 1012.0
20260506110619 75 2 1.0 9.0 0.00 0.27 0.00 83 1011.9
20260506110507 75 290 5.0 9.0 0.00 0.27 0.00 83 1011.9
20260506110110 75 258 0.0 12.0 0.00 0.27 0.00 83 1011.9
20260506110008 75 4 1.0 12.0 0.00 0.27 0.00 83 1011.9
20260506105600 75 48 3.0 11.0 0.00 0.27 0.00 83 1012.0
20260506105509 75 190 4.0 11.0 0.00 0.27 0.00 83 1011.9
20260506105049 75 282 4.0 10.0 0.00 0.27 0.00 83 1011.9
20260506105008 75 277 4.0 10.0 0.00 0.27 0.00 82 1011.8
20260506104539 75 277 2.0 10.0 0.00 0.27 0.00 82 1011.8
20260506104508 75 268 2.0 10.0 0.00 0.27 0.00 82 1011.9
20260506104030 75 288 2.0 8.0 0.00 0.27 0.00 82 1011.8
20260506104008 75 358 1.0 8.0 0.00 0.27 0.00 82 1011.8
20260506103520 75 283 1.0 6.0 0.00 0.27 0.00 82 1011.8
20260506103507 75 239 0.0 6.0 0.00 0.27 0.00 82 1011.8
20260506103010 75 276 3.0 9.0 0.01 0.27 0.00 82 1011.8
20260506103008 75 283 3.0 9.0 0.01 0.27 0.00 82 1011.8
20260506102508 75 329 2.0 7.0 0.01 0.27 0.00 82 1011.7
20260506102500 75 345 2.0 7.0 0.01 0.27 0.00 82 1011.7
20260506102008 75 314 0.0 6.0 0.01 0.27 0.00 82 1011.6
20260506101949 75 15 0.0 8.0 0.01 0.27 0.00 82 1011.6
20260506101508 75 49 6.0 11.0 0.01 0.27 0.00 82 1011.7
20260506101439 75 51 3.0 11.0 0.01 0.27 0.00 82 1011.7
20260506101008 75 207 1.0 8.0 0.02 0.27 0.00 82 1011.6
20260506100929 75 62 0.0 11.0 0.02 0.27 0.00 81 1011.6
20260506100507 76 216 7.0 11.0 0.02 0.27 0.00 81 1011.6
20260506100419 76 219 3.0 9.0 0.02 0.27 0.00 81 1011.6
20260506100008 76 341 3.0 6.0 0.02 0.27 0.00 81 1011.5
20260506095909 76 12 1.0 4.0 0.02 0.27 0.00 81 1011.5
20260506095508 76 39 1.0 5.0 0.02 0.27 0.00 81 1011.4
20260506095359 76 69 0.0 5.0 0.02 0.27 0.00 81 1011.5
20260506095007 76 347 2.0 8.0 0.02 0.27 0.00 81 1011.5
20260506094849 76 263 4.0 8.0 0.02 0.27 0.00 81 1011.5
20260506094507 76 2 1.0 8.0 0.02 0.27 0.00 81 1011.5
20260506094339 76 348 2.0 8.0 0.02 0.27 0.00 81 1011.5
20260506094008 76 272 4.0 8.0 0.02 0.27 0.00 81 1011.4
20260506093829 76 11 1.0 7.0 0.02 0.27 0.00 81 1011.4
20260506093507 76 7 2.0 7.0 0.03 0.27 0.00 81 1011.4
20260506093318 76 129 1.0 6.0 0.04 0.27 0.00 81 1011.4
20260506093007 76 19 0.0 4.0 0.03 0.25 0.00 82 1011.4
20260506092508 76 346 1.0 8.0 0.05 0.25 0.00 81 1011.4
20260506092259 76 343 5.0 9.0 0.05 0.25 0.00 81 1011.5
20260506092008 76 271 1.0 9.0 0.05 0.25 0.00 81 1011.5
20260506091748 76 222 3.0 8.0 0.05 0.25 0.00 81 1011.5
20260506091507 76 293 2.0 8.0 0.05 0.25 0.00 82 1011.5
20260506091238 76 326 1.0 14.0 0.05 0.25 0.00 82 1011.6
20260506091007 75 10 1.0 14.0 0.07 0.24 0.00 82 1011.6
20260506090729 75 19 6.0 11.0 0.07 0.24 0.00 82 1011.6
20260506090508 75 319 1.0 8.0 0.08 0.24 0.00 82 1011.7
20260506090219 75 178 1.0 15.0 0.08 0.24 0.00 82 1011.7
20260506090007 75 264 6.0 15.0 0.08 0.24 0.00 81 1011.6
20260506085708 75 39 4.0 15.0 0.09 0.24 0.00 81 1011.7
20260506085507 75 65 7.0 15.0 0.09 0.24 0.00 81 1011.8
20260506085159 76 238 3.0 7.0 0.10 0.24 0.00 81 1011.7
20260506085007 76 263 4.0 10.0 0.10 0.24 0.00 81 1011.7
20260506084007 76 53 2.0 8.0 0.11 0.24 0.00 81 1011.7
20260506083628 76 124 2.0 19.0 0.10 0.23 0.00 81 1011.6
20260506083507 76 94 7.0 19.0 0.10 0.23 0.00 80 1011.6
20260506083119 76 337 5.0 11.0 0.09 0.22 0.00 81 1011.6
20260506082609 76 201 1.0 15.0 0.08 0.21 0.00 81 1011.5
20260506082507 76 98 2.0 15.0 0.07 0.20 0.00 81 1011.6
20260506082058 76 246 4.0 8.0 0.08 0.20 0.00 81 1011.6
20260506082007 76 360 3.0 7.0 0.08 0.20 0.00 81 1011.6
20260506081548 75 215 2.0 14.0 0.08 0.20 0.00 81 1011.6
20260506081507 75 20 2.0 14.0 0.08 0.20 0.00 81 1011.6
20260506081039 75 221 1.0 9.0 0.08 0.20 0.00 81 1011.8
20260506081006 75 274 2.0 9.0 0.05 0.17 0.00 81 1011.8
20260506080528 76 245 4.0 10.0 0.04 0.16 0.00 81 1011.8
20260506080506 76 241 3.0 10.0 0.04 0.16 0.00 81 1011.8
20260506073506 76 260 5.0 9.0 0.03 0.12 0.00 81 1012.0
20260506073428 76 265 5.0 8.0 0.03 0.12 0.00 81 1012.1
20260506073006 76 360 1.0 6.0 0.03 0.12 0.00 81 1012.2
20260506072918 76 292 0.0 6.0 0.03 0.12 0.00 81 1012.2
20260506072507 75 311 3.0 9.0 0.03 0.12 0.00 81 1012.2
20260506072407 75 59 3.0 9.0 0.03 0.12 0.00 81 1012.2
20260506072006 75 282 6.0 8.0 0.02 0.11 0.00 80 1012.3
20260506071858 75 241 4.0 7.0 0.02 0.11 0.00 81 1012.2
20260506071506 75 39 1.0 10.0 0.02 0.11 0.00 80 1012.3
20260506071348 75 313 4.0 10.0 0.02 0.11 0.00 80 1012.4
20260506071007 76 60 4.0 8.0 0.02 0.11 0.00 80 1012.3
20260506070838 76 235 2.0 5.0 0.02 0.11 0.00 81 1012.3
20260506070506 76 246 2.0 7.0 0.02 0.11 0.00 80 1012.2
20260506070327 76 242 3.0 7.0 0.02 0.11 0.00 80 1012.2
20260506062506 75 312 3.0 8.0 0.03 0.09 0.00 81 1012.6
20260506062208 75 292 2.0 9.0 0.03 0.09 0.00 81 1012.6
20260506062006 75 255 3.0 9.0 0.03 0.09 0.00 81 1012.6
20260506061657 75 57 4.0 15.0 0.04 0.09 0.00 80 1012.7
20260506061506 75 27 8.0 16.0 0.04 0.09 0.00 80 1012.7
20260506061147 75 38 7.0 17.0 0.04 0.09 0.00 80 1012.8
20260506061006 75 61 11.0 17.0 0.04 0.09 0.00 79 1012.7
20260506060637 76 19 3.0 17.0 0.04 0.09 0.00 80 1012.8
20260506060505 76 288 1.0 17.0 0.04 0.09 0.00 80 1012.8
20260506060127 76 67 3.0 13.0 0.04 0.10 0.00 79 1012.9
20260506051006 76 8 3.0 15.0 0.04 0.05 0.00 79 1013.3
20260506050947 76 349 3.0 15.0 0.04 0.05 0.00 79 1013.3
20260506050506 76 23 3.0 16.0 0.04 0.05 0.00 80 1013.4
20260506050437 76 299 3.0 16.0 0.04 0.05 0.00 79 1013.3
20260506045006 75 40 4.0 13.0 0.03 0.04 0.00 80 1013.5
20260506044906 75 30 1.0 13.0 0.03 0.04 0.00 81 1013.5
20260506044505 75 74 6.0 15.0 0.02 0.03 0.00 80 1013.6
20260506044356 75 83 5.0 17.0 0.02 0.03 0.00 80 1013.7
20260506044005 75 188 10.0 17.0 0.02 0.03 0.00 80 1013.6
20260506043847 75 208 7.0 15.0 0.02 0.03 0.00 81 1013.6
20260506043505 75 195 2.0 12.0 0.02 0.03 0.00 81 1013.6
20260506043337 75 72 1.0 14.0 0.02 0.03 0.00 81 1013.7
20260506043006 75 44 9.0 14.0 0.01 0.02 0.00 81 1013.7
20260506042826 75 26 5.0 15.0 0.00 0.01 0.00 81 1013.7
20260506042505 75 360 10.0 15.0 0.00 0.01 0.00 81 1013.7
20260506042316 75 299 1.0 12.0 0.00 0.01 0.00 81 1013.7
20260506042005 75 224 1.0 5.0 0.00 0.01 0.00 82 1013.8
20260506041807 75 257 2.0 9.0 0.00 0.01 0.00 82 1013.8
20260506041505 74 292 2.0 9.0 0.00 0.01 0.00 82 1013.8
20260506041256 74 93 1.0 9.0 0.00 0.01 0.00 82 1013.9
20260506041005 74 201 1.0 9.0 0.00 0.01 0.00 82 1014.0
20260506040746 74 326 2.0 7.0 0.00 0.01 0.00 82 1014.0
20260506040505 74 225 3.0 7.0 0.00 0.01 0.00 82 1014.0
20260506040005 74 25 2.0 13.0 0.00 0.01 0.00 82 1014.0
20260506035727 74 39 4.0 9.0 0.00 0.01 0.00 82 1014.0
20260506035504 74 273 1.0 10.0 0.00 0.01 0.00 82 1014.0
20260506035005 74 217 1.0 7.0 0.00 0.01 0.00 81 1014.0
20260506034706 74 248 5.0 7.0 0.00 0.01 0.00 81 1013.9
20260506034505 74 13 1.0 10.0 0.00 0.01 0.00 82 1014.0
20260506034156 74 163 5.0 10.0 0.00 0.01 0.00 82 1013.9
20260506034005 74 253 3.0 19.0 0.00 0.01 0.00 82 1013.9
20260506033646 74 124 6.0 19.0 0.00 0.01 0.00 82 1013.9
20260506033504 74 323 0.0 14.0 0.00 0.01 0.00 82 1014.0
20260506033005 75 63 8.0 13.0 0.00 0.01 0.00 81 1014.1
20260506032626 75 272 2.0 9.0 0.00 0.01 0.00 81 1014.0
20260506032505 75 42 1.0 9.0 0.00 0.01 0.00 81 1014.0
20260506032116 75 218 1.0 3.0 0.00 0.01 0.00 81 1014.0
20260506032005 75 42 1.0 5.0 0.00 0.01 0.00 81 1014.0
20260506031606 75 337 3.0 8.0 0.00 0.01 0.00 81 1014.0
20260506031504 75 27 2.0 8.0 0.00 0.01 0.00 81 1014.0
20260506031056 74 237 3.0 10.0 0.00 0.01 0.00 81 1013.9
20260506031005 74 90 2.0 11.0 0.00 0.01 0.00 81 1013.9
20260506030546 74 38 5.0 11.0 0.00 0.01 0.00 81 1013.9
20260506030504 74 343 5.0 10.0 0.00 0.01 0.00 81 1013.8
20260506030036 74 327 2.0 12.0 0.00 0.01 0.00 81 1013.9
20260506030004 74 339 1.0 12.0 0.00 0.01 0.00 81 1013.9
20260506025526 74 340 5.0 8.0 0.00 0.01 0.00 81 1013.9
20260506025505 74 38 5.0 10.0 0.00 0.01 0.00 81 1013.9
20260506025015 74 126 7.0 14.0 0.00 0.01 0.00 81 1013.9
20260506025004 74 70 7.0 14.0 0.00 0.01 0.00 81 1013.9
20260506024507 74 330 3.0 9.0 0.00 0.01 0.00 81 1014.0
20260506024505 74 353 3.0 9.0 0.00 0.01 0.00 81 1014.0
20260506024005 75 22 4.0 8.0 0.00 0.01 0.00 81 1013.9
20260506023504 75 190 3.0 11.0 0.00 0.01 0.00 81 1013.9
20260506023445 75 204 1.0 11.0 0.00 0.01 0.00 81 1013.9
20260506023004 75 28 3.0 6.0 0.00 0.01 0.00 81 1013.9
20260506022936 75 108 3.0 8.0 0.00 0.01 0.00 81 1013.9
20260506022504 75 104 4.0 8.0 0.00 0.01 0.00 81 1013.9
20260506022425 75 224 2.0 5.0 0.00 0.01 0.00 82 1013.9
20260506022004 74 52 0.0 8.0 0.00 0.01 0.00 82 1014.0
20260506021916 74 180 1.0 8.0 0.00 0.01 0.00 82 1014.0
20260506021505 74 261 5.0 8.0 0.00 0.01 0.00 82 1013.9
20260506021405 74 213 4.0 8.0 0.00 0.01 0.00 82 1013.9
20260506021005 74 187 1.0 8.0 0.00 0.01 0.00 82 1014.0
20260506020855 74 11 1.0 8.0 0.00 0.01 0.00 83 1013.9
20260506020504 74 135 1.0 7.0 0.00 0.01 0.00 83 1014.0
20260506020346 74 122 2.0 6.0 0.00 0.01 0.00 83 1014.0
20260506020004 73 69 1.0 5.0 0.00 0.01 0.00 83 1014.0
20260506015835 73 24 2.0 5.0 0.00 0.01 0.00 83 1014.0
20260506015504 73 27 2.0 4.0 0.00 0.01 0.00 83 1014.0
20260506015327 73 53 3.0 5.0 0.00 0.01 0.00 83 1014.0
20260506015003 73 19 3.0 5.0 0.00 0.01 0.00 83 1014.0
20260506014815 73 326 2.0 4.0 0.00 0.01 0.00 83 1013.9
20260506014504 73 159 1.0 8.0 0.00 0.01 0.00 83 1013.9
20260506014305 73 89 5.0 11.0 0.00 0.01 0.00 83 1013.9
20260506014003 73 356 5.0 11.0 0.00 0.01 0.00 83 1013.9
20260506013755 73 43 2.0 5.0 0.00 0.01 0.00 84 1013.9
20260506013504 73 53 3.0 7.0 0.00 0.01 0.00 84 1014.0
20260506013245 73 46 2.0 7.0 0.00 0.01 0.00 83 1014.1
20260506013004 73 50 1.0 6.0 0.00 0.01 0.00 83 1014.1
20260506012735 73 51 2.0 4.0 0.00 0.01 0.00 84 1014.1
20260506012504 73 271 2.0 11.0 0.00 0.01 0.00 83 1014.1
20260506012225 73 80 4.0 11.0 0.00 0.01 0.00 83 1014.1
20260506012003 73 252 1.0 10.0 0.00 0.01 0.00 83 1014.1
20260506011715 73 30 3.0 10.0 0.00 0.01 0.00 83 1014.1
20260506011504 73 215 6.0 10.0 0.00 0.01 0.00 83 1014.1
20260506011205 74 287 1.0 4.0 0.00 0.01 0.00 84 1014.1
20260506011004 73 181 1.0 2.0 0.00 0.01 0.00 84 1014.1
20260506010655 73 3 0.0 9.0 0.00 0.01 0.00 84 1014.1
20260506010504 73 284 3.0 9.0 0.00 0.01 0.00 84 1014.1
20260506010145 73 73 0.0 6.0 0.00 0.01 0.00 85 1014.1
20260506010004 73 261 1.0 6.0 0.00 0.01 0.00 84 1014.1
20260506005634 73 43 1.0 11.0 0.00 0.01 0.00 85 1014.0
20260506005503 73 346 1.0 11.0 0.00 0.01 0.00 85 1014.1
20260506005125 72 20 6.0 11.0 0.00 0.01 0.00 85 1014.1
20260506005004 72 71 4.0 11.0 0.00 0.01 0.00 85 1014.1
20260506004614 72 55 2.0 5.0 0.00 0.01 0.00 85 1014.1
20260506004504 72 24 0.0 7.0 0.00 0.01 0.00 85 1014.1
20260506004105 72 78 4.0 10.0 0.00 0.01 0.00 85 1014.1
20260506004003 72 54 5.0 10.0 0.00 0.01 0.00 85 1014.2
20260506003555 72 39 1.0 4.0 0.00 0.01 0.00 85 1014.2
20260506003504 72 293 1.0 7.0 0.00 0.01 0.00 85 1014.1
20260506003044 72 241 6.0 11.0 0.00 0.01 0.00 85 1014.1
20260506003003 72 230 6.0 11.0 0.00 0.01 0.00 85 1014.1
20260506002503 72 245 1.0 4.0 0.00 0.01 0.00 85 1014.0
20260506002024 72 53 0.0 7.0 0.00 0.01 0.00 85 1013.9
20260506002004 72 178 0.0 7.0 0.00 0.01 0.00 85 1013.9
20260506001514 72 99 0.0 5.0 0.00 0.01 0.00 85 1013.9
20260506001503 72 323 0.0 5.0 0.00 0.01 0.00 85 1013.9
20260506001006 72 320 2.0 8.0 0.00 0.01 0.00 85 1013.7
20260506001003 72 287 2.0 8.0 0.00 0.01 0.00 85 1013.7
20260506000503 72 72 3.0 18.0 0.00 0.01 0.00 85 1013.8
20260506000455 72 54 3.0 18.0 0.00 0.01 0.00 85 1013.8
20260506000003 72 19 3.0 15.0 0.00 0.01 0.00 85 1013.7
20260505235944 72 32 3.0 15.0 0.00 0.01 0.00 85 1013.7
20260505235503 72 242 1.0 8.0 0.00 0.01 0.00 85 1013.7
20260505235435 72 339 1.0 8.0 0.00 0.01 0.00 85 1013.7
20260505235002 72 59 5.0 12.0 0.00 0.01 0.00 84 1013.7
20260505234924 72 7 2.0 12.0 0.00 0.01 0.00 84 1013.7
20260505234503 72 311 5.0 13.0 0.00 0.01 0.00 84 1013.7
20260505234414 72 337 3.0 13.0 0.00 0.01 0.00 84 1013.6
20260505233905 72 47 3.0 17.0 0.00 0.01 0.00 84 1013.6
20260505233503 72 39 4.0 11.0 0.00 0.01 0.00 85 1013.6
20260505233354 72 13 3.0 12.0 0.00 0.01 0.00 85 1013.6
20260505233003 72 67 8.0 12.0 0.00 0.01 0.00 85 1013.6
20260505232503 72 41 3.0 17.0 0.00 0.01 0.00 85 1013.6
20260505232334 72 239 7.0 17.0 0.00 0.01 0.00 85 1013.4
20260505232003 72 261 5.0 14.0 0.00 0.01 0.00 85 1013.5
20260505231824 72 95 1.0 8.0 0.00 0.01 0.00 85 1013.5
20260505231503 72 255 2.0 5.0 0.00 0.01 0.00 85 1013.5
20260505231313 72 17 2.0 5.0 0.00 0.01 0.00 85 1013.5
20260505231002 71 355 1.0 6.0 0.00 0.01 0.00 85 1013.6
20260505230804 71 259 3.0 6.0 0.00 0.01 0.00 85 1013.5
20260505230503 71 215 0.0 8.0 0.00 0.01 0.00 85 1013.5
20260505230254 71 46 3.0 8.0 0.00 0.01 0.00 85 1013.5
20260505230003 71 257 1.0 6.0 0.00 0.01 0.00 85 1013.5
20260505225744 71 343 1.0 6.0 0.00 0.01 0.00 85 1013.5
20260505225502 71 223 0.0 10.0 0.00 0.01 0.00 85 1013.5
20260505225234 71 39 4.0 10.0 0.00 0.01 0.00 85 1013.5
20260505225002 71 63 0.0 3.0 0.00 0.01 0.00 85 1013.4
20260505224724 71 245 2.0 5.0 0.00 0.01 0.00 85 1013.3
20260505224503 71 291 2.0 5.0 0.00 0.01 0.00 85 1013.3
20260505224213 71 213 2.0 5.0 0.00 0.01 0.00 85 1013.3
20260505224002 71 10 2.0 7.0 0.00 0.01 0.00 85 1013.3
20260505223704 71 260 3.0 7.0 0.00 0.01 0.00 85 1013.2
20260505223502 71 232 0.0 9.0 0.00 0.01 0.00 85 1013.3
20260505223154 71 12 4.0 9.0 0.00 0.01 0.00 85 1013.2
20260505223003 71 69 1.0 6.0 0.00 0.01 0.00 86 1013.2
20260505222643 71 138 0.0 10.0 0.00 0.01 0.00 86 1013.2
20260505222502 71 191 6.0 10.0 0.00 0.01 0.00 86 1013.1
20260505222134 71 39 1.0 5.0 0.00 0.01 0.00 86 1013.1
20260505222002 71 269 1.0 5.0 0.00 0.01 0.00 86 1013.1
20260505221624 71 5 1.0 7.0 0.00 0.01 0.00 86 1013.0
20260505221503 71 261 1.0 7.0 0.00 0.01 0.00 86 1013.0
20260505221113 71 224 2.0 7.0 0.00 0.01 0.00 86 1013.0
20260505221002 71 340 1.0 7.0 0.00 0.01 0.00 86 1013.0
20260505220603 71 235 0.0 4.0 0.00 0.01 0.00 86 1013.0
20260505220502 71 338 1.0 6.0 0.00 0.01 0.00 86 1013.0
20260505220054 71 259 3.0 5.0 0.00 0.01 0.00 86 1012.9
20260505220002 71 282 0.0 7.0 0.00 0.01 0.00 86 1012.9
20260505215543 71 249 3.0 7.0 0.00 0.01 0.00 85 1012.9
20260505215502 71 277 3.0 6.0 0.00 0.01 0.00 85 1012.9
20260505215033 71 311 0.0 4.0 0.00 0.01 0.00 85 1012.9
20260505215002 71 341 0.0 4.0 0.00 0.01 0.00 85 1012.8
20260505214524 71 37 1.0 5.0 0.00 0.01 0.00 85 1012.8
20260505214502 71 301 2.0 5.0 0.00 0.01 0.00 85 1012.8
20260505214002 71 276 1.0 5.0 0.00 0.01 0.00 85 1012.8
20260505213504 71 26 1.0 10.0 0.00 0.01 0.00 85 1012.9
20260505213502 71 41 1.0 10.0 0.00 0.01 0.00 85 1012.9
20260505213002 71 175 7.0 11.0 0.00 0.01 0.00 85 1012.8
20260505212953 71 244 7.0 11.0 0.00 0.01 0.00 85 1012.8
20260505212501 71 264 4.0 8.0 0.00 0.01 0.00 85 1012.9
20260505212443 71 230 2.0 8.0 0.00 0.01 0.00 85 1012.9
20260505212002 71 252 3.0 11.0 0.00 0.01 0.00 85 1012.9
20260505211933 71 251 2.0 11.0 0.00 0.01 0.00 85 1012.8
20260505211502 71 284 1.0 6.0 0.00 0.01 0.00 85 1012.7
20260505211424 71 295 3.0 7.0 0.00 0.01 0.00 85 1012.7
20260505211001 71 269 5.0 9.0 0.00 0.01 0.00 85 1012.7
20260505210913 71 244 5.0 9.0 0.00 0.01 0.00 85 1012.7
20260505210502 71 281 3.0 10.0 0.00 0.01 0.00 85 1012.7
20260505210403 71 253 6.0 10.0 0.00 0.01 0.00 85 1012.7
20260505210001 71 251 1.0 9.0 0.00 0.01 0.00 85 1012.6
20260505205853 71 1 4.0 9.0 0.00 0.01 0.00 85 1012.6
20260505205502 71 251 1.0 15.0 0.00 0.01 0.00 85 1012.5
20260505205343 71 255 10.0 15.0 0.00 0.01 0.00 85 1012.4
20260505205002 71 274 2.0 13.0 0.00 0.01 0.00 85 1012.4
20260505204833 71 285 6.0 13.0 0.00 0.01 0.00 85 1012.5
20260505204501 71 254 8.0 14.0 0.00 0.01 0.00 85 1012.4
20260505204323 71 256 2.0 14.0 0.00 0.01 0.00 85 1012.4
20260505204001 71 68 3.0 14.0 0.00 0.01 0.00 85 1012.3
20260505203813 71 183 7.0 10.0 0.00 0.01 0.00 85 1012.3
20260505203501 71 232 3.0 8.0 0.00 0.01 0.00 85 1012.3
20260505203303 71 266 4.0 7.0 0.00 0.01 0.00 85 1012.3
20260505203002 71 350 3.0 14.0 0.00 0.01 0.00 85 1012.3
20260505202753 71 274 4.0 14.0 0.00 0.01 0.00 85 1012.3
20260505202501 71 263 5.0 12.0 0.00 0.01 0.00 85 1012.4
20260505202242 71 278 7.0 12.0 0.00 0.01 0.00 85 1012.4
20260505202001 71 239 4.0 9.0 0.00 0.01 0.00 85 1012.3
20260505201733 70 260 1.0 11.0 0.00 0.01 0.00 85 1012.3
20260505201502 70 331 6.0 11.0 0.00 0.01 0.00 85 1012.3
20260505201222 70 192 2.0 9.0 0.00 0.01 0.00 85 1012.4
20260505201001 71 251 5.0 9.0 0.00 0.01 0.00 85 1012.4
20260505200712 71 333 3.0 13.0 0.00 0.01 0.00 85 1012.4
20260505200501 71 196 3.0 13.0 0.00 0.01 0.00 85 1012.3
20260505200203 70 280 4.0 13.0 0.00 0.01 0.00 85 1012.3
20260505200002 70 221 6.0 12.0 0.00 0.01 0.00 85 1012.4
20260505195652 70 238 5.0 9.0 0.00 0.01 0.00 85 1012.3
20260505195501 70 274 2.0 14.0 0.00 0.01 0.00 85 1012.3
20260505195142 70 174 4.0 14.0 0.00 0.01 0.00 85 1012.3
20260505195001 70 113 5.0 12.0 0.00 0.01 0.00 85 1012.4
20260505194633 70 199 4.0 10.0 0.00 0.01 0.00 86 1012.4
20260505194501 70 219 3.0 9.0 0.00 0.01 0.00 86 1012.4
20260505194123 70 281 3.0 10.0 0.00 0.01 0.00 86 1012.4
20260505194000 70 34 4.0 12.0 0.00 0.01 0.00 85 1012.4
20260505193612 70 244 7.0 12.0 0.00 0.01 0.00 86 1012.3
20260505193501 70 238 5.0 11.0 0.00 0.01 0.00 86 1012.3
20260505193102 70 35 4.0 17.0 0.00 0.01 0.00 86 1012.3
20260505193001 70 360 3.0 17.0 0.00 0.01 0.00 86 1012.4
20260505192553 70 350 1.0 5.0 0.00 0.01 0.00 86 1012.3
20260505192501 70 255 3.0 5.0 0.00 0.01 0.00 86 1012.3
20260505192042 70 236 2.0 10.0 0.00 0.01 0.00 85 1012.3
20260505192001 70 241 3.0 10.0 0.00 0.01 0.00 85 1012.3
20260505191532 70 238 2.0 9.0 0.00 0.01 0.00 86 1012.4
20260505191501 70 225 2.0 9.0 0.00 0.01 0.00 86 1012.3
20260505191022 70 257 4.0 11.0 0.00 0.01 0.00 85 1012.4
20260505191001 70 243 5.0 11.0 0.00 0.01 0.00 85 1012.3
20260505190513 70 36 4.0 10.0 0.00 0.01 0.00 86 1012.2
20260505190501 70 15 4.0 9.0 0.00 0.01 0.00 86 1012.2
20260505190003 70 68 2.0 10.0 0.00 0.01 0.00 86 1012.3
20260505190000 70 93 2.0 10.0 0.00 0.01 0.00 86 1012.2
20260505185501 70 204 2.0 8.0 0.00 0.01 0.00 86 1012.3
20260505185452 70 214 3.0 8.0 0.00 0.01 0.00 86 1012.3
20260505185000 70 333 6.0 13.0 0.00 0.01 0.00 86 1012.4
20260505184942 70 11 6.0 13.0 0.00 0.01 0.00 86 1012.3
20260505184500 70 282 1.0 5.0 0.00 0.01 0.00 86 1012.3
20260505184432 70 360 1.0 6.0 0.00 0.01 0.00 86 1012.4
20260505184001 70 302 4.0 11.0 0.00 0.01 0.00 86 1012.4
20260505183922 70 252 6.0 11.0 0.00 0.01 0.00 86 1012.4
20260505183500 70 251 6.0 10.0 0.00 0.01 0.00 86 1012.5
20260505183411 70 288 1.0 9.0 0.00 0.01 0.00 86 1012.5
20260505183000 70 269 1.0 10.0 0.00 0.01 0.00 87 1012.5
20260505182902 70 235 0.0 10.0 0.00 0.01 0.00 87 1012.5
20260505182501 70 245 1.0 6.0 0.00 0.01 0.00 87 1012.6
20260505182352 70 278 0.0 6.0 0.00 0.01 0.00 87 1012.6
20260505182000 70 323 3.0 10.0 0.00 0.01 0.00 87 1012.6
20260505181841 70 208 3.0 10.0 0.00 0.01 0.00 87 1012.6
20260505181500 70 240 2.0 10.0 0.00 0.01 0.00 87 1012.5
20260505181332 70 31 4.0 10.0 0.00 0.01 0.00 87 1012.5
20260505181001 70 219 2.0 10.0 0.00 0.01 0.00 87 1012.5
20260505180822 70 260 4.0 10.0 0.00 0.01 0.00 87 1012.4
20260505180500 70 262 2.0 8.0 0.00 0.01 0.00 87 1012.5
20260505180311 70 306 2.0 8.0 0.00 0.01 0.00 87 1012.4
20260505180000 70 307 2.0 10.0 0.00 0.01 0.00 87 1012.4
20260505175801 70 11 1.0 10.0 0.00 0.01 0.00 88 1012.5
20260505175500 70 219 4.0 22.0 0.00 0.01 0.00 88 1012.5
20260505175252 70 347 3.0 22.0 0.00 0.01 0.00 88 1012.6
20260505175001 70 229 6.0 12.0 0.00 0.01 0.00 88 1012.6
20260505174741 70 263 5.0 12.0 0.00 0.01 0.00 88 1012.7
20260505174500 70 247 4.0 9.0 0.00 0.01 0.00 88 1012.6
20260505174231 70 275 3.0 8.0 0.00 0.01 0.00 88 1012.6
20260505174000 70 273 2.0 8.0 0.00 0.01 0.00 88 1012.6
20260505173722 70 236 5.0 10.0 0.00 0.01 0.00 88 1012.7
20260505173212 70 262 0.0 4.0 0.00 0.01 0.00 88 1012.7
20260505172701 70 72 2.0 7.0 0.00 0.01 0.00 88 1012.8
20260505172500 70 6 1.0 9.0 0.00 0.01 0.00 88 1012.7
20260505172151 70 14 3.0 9.0 0.00 0.01 0.00 88 1012.7
20260505172000 70 270 1.0 9.0 0.00 0.01 0.00 89 1012.8
20260505171642 70 12 1.0 6.0 0.00 0.01 0.00 89 1012.9
20260505171500 70 262 5.0 6.0 0.00 0.01 0.00 89 1012.9
20260505171131 70 290 0.0 7.0 0.00 0.01 0.00 89 1013.0
20260505170959 70 255 4.0 7.0 0.00 0.01 0.00 89 1013.0
20260505170621 70 265 3.0 7.0 0.00 0.01 0.00 89 1013.0
20260505170500 70 325 2.0 7.0 0.00 0.01 0.00 89 1013.0
20260505170111 70 252 1.0 8.0 0.00 0.01 0.00 89 1013.0
20260505170000 70 264 3.0 11.0 0.00 0.01 0.00 89 1012.9
20260505165459 69 311 2.0 9.0 0.00 0.01 0.00 89 1013.0
20260505165051 70 274 2.0 10.0 0.00 0.01 0.00 89 1013.0
20260505165000 70 265 0.0 10.0 0.00 0.01 0.00 89 1013.0
20260505164541 70 276 3.0 8.0 0.00 0.01 0.00 89 1013.0
20260505164500 70 320 1.0 8.0 0.00 0.01 0.00 89 1013.1
20260505164031 70 46 2.0 6.0 0.00 0.01 0.00 89 1013.1
20260505164000 70 266 3.0 6.0 0.00 0.01 0.00 89 1013.0
20260505163521 70 258 1.0 11.0 0.00 0.01 0.00 89 1013.0
20260505163459 70 276 3.0 11.0 0.00 0.01 0.00 89 1013.1
20260505163011 70 268 1.0 10.0 0.00 0.01 0.00 89 1013.0
20260505162959 70 281 0.0 10.0 0.00 0.01 0.00 89 1013.1
20260505162502 70 246 3.0 9.0 0.00 0.01 0.00 89 1013.2
20260505162500 70 239 3.0 9.0 0.00 0.01 0.00 89 1013.2
20260505161959 70 255 6.0 14.0 0.00 0.01 0.00 89 1013.3
20260505161951 70 274 7.0 14.0 0.00 0.01 0.00 89 1013.3
20260505161459 70 294 1.0 11.0 0.00 0.01 0.00 89 1013.4
20260505161440 70 307 2.0 11.0 0.00 0.01 0.00 89 1013.3
20260505160959 70 230 5.0 15.0 0.00 0.01 0.00 89 1013.3
20260505160931 70 196 5.0 15.0 0.00 0.01 0.00 89 1013.4
20260505160500 70 258 8.0 14.0 0.00 0.01 0.00 89 1013.3
20260505160421 70 200 9.0 14.0 0.00 0.01 0.00 89 1013.3